Time,TemperatureF,DewpointF,PressureIn,WindDirection,WindDirectionDegrees,WindSpeedMPH,WindSpeedGustMPH,Humidity,HourlyPrecipIn,Conditions,Clouds,dailyrainin,SoftwareType,DateUTC
2013-08-21 00:00:00,54.4,53.6,29.84,East,92,1.0,3.0,97,0.00,,,0.08,Wunderground v.1.15,2013-08-21 08:00:00,
2013-08-21 00:10:00,54.7,53.6,29.85,East,91,2.0,3.0,96,0.00,,,0.08,Wunderground v.1.15,2013-08-21 08:10:00,
2013-08-21 00:20:00,54.6,53.5,29.85,ENE,74,2.0,3.0,96,0.00,,,0.08,Wunderground v.1.15,2013-08-21 08:20:00,
2013-08-21 00:30:00,54.7,53.3,29.85,ENE,74,3.0,3.0,95,0.00,,,0.08,Wunderground v.1.15,2013-08-21 08:30:00,
2013-08-21 00:40:00,54.6,53.2,29.85,East,80,0.0,3.0,95,0.00,,,0.08,Wunderground v.1.15,2013-08-21 08:40:00,
2013-08-21 00:50:00,54.8,53.1,29.85,ESE,119,3.0,3.0,94,0.00,,,0.08,Wunderground v.1.15,2013-08-21 08:50:00,
2013-08-21 01:00:00,54.8,53.1,29.85,ESE,122,2.0,2.0,94,0.00,,,0.08,Wunderground v.1.15,2013-08-21 09:00:00,
2013-08-21 01:20:00,54.6,52.9,29.85,ESE,119,2.0,5.0,94,0.00,,,0.00,Wunderground v.1.15,2013-08-21 09:20:00,
2013-08-21 01:30:00,54.7,53.6,29.85,SE,146,2.0,2.0,96,0.00,,,0.00,Wunderground v.1.15,2013-08-21 09:30:00,
2013-08-21 01:40:00,54.6,53.2,29.86,SE,143,1.0,5.0,95,0.00,,,0.00,Wunderground v.1.15,2013-08-21 09:40:00,
2013-08-21 01:50:00,54.7,53.3,29.86,SSE,151,1.0,5.0,95,0.00,,,0.00,Wunderground v.1.15,2013-08-21 09:50:00,
2013-08-21 02:00:00,54.6,52.9,29.86,SSE,159,1.0,4.0,94,0.00,,,0.00,Wunderground v.1.15,2013-08-21 10:00:00,
2013-08-21 02:10:00,54.4,53.0,29.86,SSE,148,1.0,4.0,95,0.00,,,0.01,Wunderground v.1.15,2013-08-21 10:10:00,
2013-08-21 02:20:00,54.5,53.1,29.86,SE,126,2.0,4.0,95,0.00,,,0.01,Wunderground v.1.15,2013-08-21 10:20:00,
2013-08-21 02:30:00,54.4,52.7,29.86,SE,131,3.0,6.0,94,0.00,,,0.01,Wunderground v.1.15,2013-08-21 10:30:00,
2013-08-21 02:40:00,54.3,52.3,29.86,SE,135,4.0,4.0,93,0.00,,,0.02,Wunderground v.1.15,2013-08-21 10:40:00,
2013-08-21 02:50:00,54.3,52.3,29.86,ESE,121,3.0,4.0,93,0.00,,,0.02,Wunderground v.1.15,2013-08-21 10:50:00,
2013-08-21 03:00:00,54.1,52.1,29.86,SE,128,4.0,7.0,93,0.00,,,0.03,Wunderground v.1.15,2013-08-21 11:00:00,
2013-08-21 03:10:00,53.9,51.9,29.86,SE,126,4.0,7.0,93,0.00,,,0.03,Wunderground v.1.15,2013-08-21 11:10:00,
2013-08-21 03:20:00,53.6,51.6,29.86,SE,129,4.0,7.0,93,0.00,,,0.04,Wunderground v.1.15,2013-08-21 11:20:00,
2013-08-21 03:30:00,53.6,51.6,29.86,SE,128,4.0,7.0,93,0.00,,,0.04,Wunderground v.1.15,2013-08-21 11:30:00,
2013-08-21 03:40:00,53.3,51.6,29.86,ESE,102,4.0,7.0,94,0.00,,,0.04,Wunderground v.1.15,2013-08-21 11:40:00,
2013-08-21 03:50:00,53.2,51.8,29.86,ESE,105,6.0,6.0,95,0.00,,,0.05,Wunderground v.1.15,2013-08-21 11:50:00,
2013-08-21 04:00:00,53.1,51.7,29.86,ESE,123,3.0,8.0,95,0.05,,,0.06,Wunderground v.1.15,2013-08-21 12:00:00,
2013-08-21 04:10:00,53.0,51.6,29.86,SE,133,2.0,8.0,95,0.04,,,0.06,Wunderground v.1.15,2013-08-21 12:10:00,
2013-08-21 04:20:00,53.0,51.9,29.86,ESE,105,2.0,8.0,96,0.00,,,0.07,Wunderground v.1.15,2013-08-21 12:20:00,
2013-08-21 04:30:00,53.0,52.2,29.86,East,96,3.0,8.0,97,0.05,,,0.08,Wunderground v.1.15,2013-08-21 12:30:00,
2013-08-21 04:40:00,53.1,52.3,29.85,East,93,5.0,8.0,97,0.04,,,0.08,Wunderground v.1.15,2013-08-21 12:40:00,
2013-08-21 04:50:00,52.9,51.8,29.85,East,90,6.0,8.0,96,0.00,,,0.08,Wunderground v.1.15,2013-08-21 12:50:00,
2013-08-21 05:00:00,52.9,51.8,29.85,East,98,6.0,6.0,96,0.00,,,0.09,Wunderground v.1.15,2013-08-21 13:00:00,
2013-08-21 05:10:00,53.0,51.6,29.85,ENE,63,6.0,8.0,95,0.00,,,0.09,Wunderground v.1.15,2013-08-21 13:10:00,
2013-08-21 05:20:00,53.0,51.3,29.85,East,97,7.0,7.0,94,0.00,,,0.09,Wunderground v.1.15,2013-08-21 13:20:00,
2013-08-21 05:30:00,52.8,50.8,29.85,NE,45,7.0,7.0,93,0.00,,,0.09,Wunderground v.1.15,2013-08-21 13:30:00,
2013-08-21 05:40:00,52.3,50.6,29.85,East,83,6.0,6.0,94,0.00,,,0.09,Wunderground v.1.15,2013-08-21 13:40:00,
2013-08-21 05:50:00,52.2,50.5,29.85,ENE,76,5.0,5.0,94,0.00,,,0.10,Wunderground v.1.15,2013-08-21 13:50:00,
2013-08-21 06:00:00,51.9,50.2,29.85,ENE,62,5.0,9.0,94,0.00,,,0.10,Wunderground v.1.15,2013-08-21 14:00:00,
2013-08-21 06:10:00,51.7,50.0,29.84,ENE,57,6.0,6.0,94,0.00,,,0.10,Wunderground v.1.15,2013-08-21 14:10:00,
2013-08-21 06:20:00,51.6,49.6,29.84,East,80,6.0,9.0,93,0.00,,,0.10,Wunderground v.1.15,2013-08-21 14:20:00,
2013-08-21 06:30:00,51.5,49.8,29.84,NE,44,8.0,8.0,94,0.00,,,0.10,Wunderground v.1.15,2013-08-21 14:30:00,
2013-08-21 06:40:00,51.2,49.2,29.84,NE,39,6.0,9.0,93,0.00,,,0.10,Wunderground v.1.15,2013-08-21 14:40:00,
2013-08-21 06:50:00,51.2,49.2,29.84,NE,49,6.0,6.0,93,0.00,,,0.10,Wunderground v.1.15,2013-08-21 14:50:00,
2013-08-21 07:00:00,51.4,49.4,29.84,East,96,5.0,10.0,93,0.00,,,0.10,Wunderground v.1.15,2013-08-21 15:00:00,
2013-08-21 07:20:00,51.1,48.6,29.84,ENE,63,5.0,10.0,91,0.00,,,0.11,Wunderground v.1.15,2013-08-21 15:20:00,
2013-08-21 07:30:00,51.1,48.9,29.84,NE,55,5.0,10.0,92,0.00,,,0.11,Wunderground v.1.15,2013-08-21 15:30:00,
2013-08-21 07:40:00,51.1,48.6,29.84,NE,51,6.0,6.0,91,0.00,,,0.11,Wunderground v.1.15,2013-08-21 15:40:00,
2013-08-21 07:50:00,51.2,48.4,29.84,ENE,62,5.0,10.0,90,0.00,,,0.11,Wunderground v.1.15,2013-08-21 15:50:00,
2013-08-21 08:00:00,51.2,48.4,29.84,ENE,63,5.0,8.0,90,0.00,,,0.11,Wunderground v.1.15,2013-08-21 16:00:00,
2013-08-21 08:10:00,51.6,48.2,29.84,ENE,61,7.0,8.0,88,0.00,,,0.12,Wunderground v.1.15,2013-08-21 16:10:00,
2013-08-21 08:20:00,51.3,48.5,29.84,East,82,6.0,8.0,90,0.00,,,0.12,Wunderground v.1.15,2013-08-21 16:20:00,
2013-08-21 08:30:00,51.0,48.2,29.84,ENE,64,5.0,8.0,90,0.00,,,0.12,Wunderground v.1.15,2013-08-21 16:30:00,
2013-08-21 08:40:00,51.1,48.3,29.84,NE,51,5.0,5.0,90,0.00,,,0.12,Wunderground v.1.15,2013-08-21 16:40:00,
2013-08-21 08:50:00,51.2,48.7,29.84,NE,49,5.0,8.0,91,0.00,,,0.12,Wunderground v.1.15,2013-08-21 16:50:00,
2013-08-21 09:00:00,51.1,48.6,29.84,NE,55,4.0,4.0,91,0.00,,,0.12,Wunderground v.1.15,2013-08-21 17:00:00,
2013-08-21 09:10:00,51.1,48.6,29.83,ENE,70,6.0,10.0,91,0.00,,,0.12,Wunderground v.1.15,2013-08-21 17:10:00,
2013-08-21 09:20:00,51.4,48.9,29.83,ENE,71,7.0,10.0,91,0.00,,,0.12,Wunderground v.1.15,2013-08-21 17:20:00,
2013-08-21 09:30:00,51.4,48.9,29.83,ENE,57,7.0,10.0,91,0.00,,,0.12,Wunderground v.1.15,2013-08-21 17:30:00,
2013-08-21 09:40:00,51.5,49.0,29.83,ENE,64,7.0,10.0,91,0.00,,,0.13,Wunderground v.1.15,2013-08-21 17:40:00,
2013-08-21 09:50:00,51.5,49.0,29.83,NE,39,6.0,6.0,91,0.00,,,0.13,Wunderground v.1.15,2013-08-21 17:50:00,
2013-08-21 10:00:00,51.7,48.6,29.83,ENE,77,6.0,6.0,89,0.00,,,0.13,Wunderground v.1.15,2013-08-21 18:00:00,
2013-08-21 10:10:00,51.7,49.2,29.83,East,94,5.0,5.0,91,0.00,,,0.13,Wunderground v.1.15,2013-08-21 18:10:00,
2013-08-21 10:20:00,51.6,48.8,29.83,East,79,6.0,6.0,90,0.00,,,0.14,Wunderground v.1.15,2013-08-21 18:20:00,
2013-08-21 10:30:00,51.7,49.5,29.83,ENE,74,6.0,6.0,92,0.00,,,0.14,Wunderground v.1.15,2013-08-21 18:30:00,
2013-08-21 10:40:00,51.7,49.2,29.83,ENE,67,5.0,11.0,91,0.00,,,0.14,Wunderground v.1.15,2013-08-21 18:40:00,
2013-08-21 10:50:00,52.0,49.5,29.83,NE,52,6.0,11.0,91,0.00,,,0.14,Wunderground v.1.15,2013-08-21 18:50:00,
2013-08-21 11:00:00,51.9,49.6,29.83,NE,54,7.0,7.0,92,0.00,,,0.15,Wunderground v.1.15,2013-08-21 19:00:00,
2013-08-21 11:10:00,52.0,49.5,29.83,NE,55,7.0,9.0,91,0.00,,,0.15,Wunderground v.1.15,2013-08-21 19:10:00,
2013-08-21 11:20:00,51.9,49.6,29.83,NE,55,8.0,8.0,92,0.00,,,0.15,Wunderground v.1.15,2013-08-21 19:20:00,
2013-08-21 11:30:00,51.9,49.4,29.83,ENE,69,8.0,8.0,91,0.00,,,0.16,Wunderground v.1.15,2013-08-21 19:30:00,
2013-08-21 11:40:00,51.9,49.9,29.82,NE,42,7.0,9.0,93,0.00,,,0.16,Wunderground v.1.15,2013-08-21 19:40:00,
2013-08-21 11:50:00,52.0,49.7,29.83,ENE,76,7.0,9.0,92,0.00,,,0.16,Wunderground v.1.15,2013-08-21 19:50:00,
2013-08-21 12:00:00,52.1,49.8,29.83,ENE,63,7.0,7.0,92,0.00,,,0.17,Wunderground v.1.15,2013-08-21 20:00:00,
2013-08-21 12:10:00,52.1,50.1,29.83,ENE,77,6.0,6.0,93,0.06,,,0.18,Wunderground v.1.15,2013-08-21 20:10:00,
2013-08-21 12:20:00,52.2,49.9,29.83,East,81,6.0,11.0,92,0.04,,,0.18,Wunderground v.1.15,2013-08-21 20:20:00,
2013-08-21 12:30:00,52.3,50.0,29.83,NE,48,8.0,8.0,92,0.00,,,0.19,Wunderground v.1.15,2013-08-21 20:30:00,
2013-08-21 12:40:00,52.6,50.6,29.83,ENE,60,8.0,11.0,93,0.06,,,0.20,Wunderground v.1.15,2013-08-21 20:40:00,
2013-08-21 12:50:00,52.5,50.5,29.83,ENE,59,8.0,11.0,93,0.00,,,0.20,Wunderground v.1.15,2013-08-21 20:50:00,
2013-08-21 13:00:00,52.5,50.5,29.83,ENE,74,8.0,12.0,93,0.00,,,0.21,Wunderground v.1.15,2013-08-21 21:00:00,
2013-08-21 13:10:00,52.7,51.0,29.82,ENE,71,7.0,7.0,94,0.05,,,0.22,Wunderground v.1.15,2013-08-21 21:10:00,
2013-08-21 13:20:00,52.9,50.9,29.83,ENE,65,7.0,12.0,93,0.05,,,0.22,Wunderground v.1.15,2013-08-21 21:20:00,
2013-08-21 13:30:00,52.8,50.5,29.82,ENE,71,8.0,12.0,92,0.00,,,0.23,Wunderground v.1.15,2013-08-21 21:30:00,
2013-08-21 13:40:00,52.7,50.4,29.82,ENE,62,8.0,12.0,92,0.00,,,0.23,Wunderground v.1.15,2013-08-21 21:40:00,
2013-08-21 13:50:00,52.7,50.7,29.82,ENE,68,8.0,12.0,93,0.04,,,0.24,Wunderground v.1.15,2013-08-21 21:50:00,
2013-08-21 14:00:00,52.7,50.7,29.82,ENE,75,7.0,11.0,93,0.04,,,0.24,Wunderground v.1.15,2013-08-21 22:00:00,
2013-08-21 14:10:00,52.8,51.1,29.82,ENE,60,7.0,11.0,94,0.00,,,0.24,Wunderground v.1.15,2013-08-21 22:10:00,
2013-08-21 14:20:00,52.8,50.8,29.82,ENE,59,7.0,11.0,93,0.00,,,0.24,Wunderground v.1.15,2013-08-21 22:20:00,
2013-08-21 14:30:00,52.8,50.8,29.82,ENE,66,8.0,11.0,93,0.00,,,0.24,Wunderground v.1.15,2013-08-21 22:30:00,
2013-08-21 14:40:00,52.9,50.9,29.82,ENE,59,8.0,8.0,93,0.00,,,0.25,Wunderground v.1.15,2013-08-21 22:40:00,
2013-08-21 14:50:00,53.2,51.2,29.81,NE,51,8.0,8.0,93,0.00,,,0.25,Wunderground v.1.15,2013-08-21 22:50:00,
2013-08-21 15:00:00,53.3,51.0,29.81,ENE,63,7.0,11.0,92,0.00,,,0.25,Wunderground v.1.15,2013-08-21 23:00:00,
2013-08-21 15:10:00,53.6,51.0,29.81,NE,56,7.0,7.0,91,0.00,,,0.25,Wunderground v.1.15,2013-08-21 23:10:00,
2013-08-21 15:20:00,53.8,50.9,29.81,ENE,65,8.0,11.0,90,0.00,,,0.25,Wunderground v.1.15,2013-08-21 23:20:00,
2013-08-21 15:30:00,54.0,51.1,29.81,ENE,76,7.0,11.0,90,0.00,,,0.26,Wunderground v.1.15,2013-08-21 23:30:00,
2013-08-21 15:40:00,54.1,51.2,29.80,NE,55,7.0,11.0,90,0.00,,,0.26,Wunderground v.1.15,2013-08-21 23:40:00,
2013-08-21 15:50:00,54.2,51.6,29.80,ENE,71,7.0,11.0,91,0.00,,,0.26,Wunderground v.1.15,2013-08-21 23:50:00,
2013-08-21 16:00:00,54.3,51.4,29.80,NE,46,6.0,11.0,90,0.00,,,0.26,Wunderground v.1.15,2013-08-22 00:00:00,
2013-08-21 16:10:00,54.3,52.0,29.80,ENE,65,6.0,11.0,92,0.00,,,0.26,Wunderground v.1.15,2013-08-22 00:10:00,
2013-08-21 16:20:00,54.3,51.4,29.80,ENE,68,6.0,6.0,90,0.00,,,0.27,Wunderground v.1.15,2013-08-22 00:20:00,
2013-08-21 16:30:00,54.3,51.7,29.80,NE,54,5.0,5.0,91,0.00,,,0.27,Wunderground v.1.15,2013-08-22 00:30:00,
2013-08-21 16:40:00,54.3,51.4,29.80,ENE,73,4.0,11.0,90,0.00,,,0.27,Wunderground v.1.15,2013-08-22 00:40:00,
2013-08-21 16:50:00,54.3,50.8,29.80,ENE,76,4.0,11.0,88,0.00,,,0.28,Wunderground v.1.15,2013-08-22 00:50:00,
2013-08-21 17:00:00,54.4,51.2,29.80,NE,52,3.0,3.0,89,0.00,,,0.28,Wunderground v.1.15,2013-08-22 01:00:00,
2013-08-21 17:10:00,54.5,51.3,29.79,ENE,58,3.0,3.0,89,0.00,,,0.28,Wunderground v.1.15,2013-08-22 01:10:00,
2013-08-21 17:20:00,54.5,51.3,29.79,NE,51,1.0,10.0,89,0.00,,,0.28,Wunderground v.1.15,2013-08-22 01:20:00,
2013-08-21 17:30:00,54.5,51.6,29.79,NE,51,0.0,10.0,90,0.00,,,0.29,Wunderground v.1.15,2013-08-22 01:30:00,
2013-08-21 17:40:00,54.6,52.0,29.79,NE,51,0.0,10.0,91,0.00,,,0.29,Wunderground v.1.15,2013-08-22 01:40:00,
2013-08-21 17:50:00,54.6,52.0,29.79,NE,51,0.0,10.0,91,0.00,,,0.29,Wunderground v.1.15,2013-08-22 01:50:00,
2013-08-21 18:00:00,54.5,52.5,29.79,North,355,0.0,5.0,93,0.00,,,0.30,Wunderground v.1.15,2013-08-22 02:00:00,
2013-08-21 18:10:00,54.5,52.5,29.79,North,355,0.0,5.0,93,0.00,,,0.30,Wunderground v.1.15,2013-08-22 02:10:00,
2013-08-21 18:20:00,54.4,52.7,29.78,NW,322,0.0,5.0,94,0.04,,,0.31,Wunderground v.1.15,2013-08-22 02:20:00,
2013-08-21 18:30:00,54.1,51.8,29.78,NW,322,0.0,5.0,92,0.04,,,0.31,Wunderground v.1.15,2013-08-22 02:30:00,
2013-08-21 18:40:00,53.9,51.9,29.78,NW,317,0.0,5.0,93,0.04,,,0.32,Wunderground v.1.15,2013-08-22 02:40:00,
2013-08-21 18:50:00,53.7,51.7,29.78,NW,304,0.0,5.0,93,0.00,,,0.32,Wunderground v.1.15,2013-08-22 02:50:00,
2013-08-21 19:00:00,53.7,52.0,29.78,NW,304,0.0,0.0,94,0.00,,,0.32,Wunderground v.1.15,2013-08-22 03:00:00,
2013-08-21 19:20:00,53.7,52.3,29.78,WNW,296,0.0,0.0,95,0.00,,,0.32,Wunderground v.1.15,2013-08-22 03:20:00,
2013-08-21 19:30:00,53.7,52.3,29.78,WNW,296,0.0,0.0,95,0.00,,,0.32,Wunderground v.1.15,2013-08-22 03:30:00,
2013-08-21 19:40:00,53.6,52.5,29.77,WNW,302,0.0,2.0,96,0.00,,,0.32,Wunderground v.1.15,2013-08-22 03:40:00,
2013-08-21 19:50:00,53.7,52.6,29.77,WNW,293,0.0,0.0,96,0.00,,,0.33,Wunderground v.1.15,2013-08-22 03:50:00,
2013-08-21 20:00:00,53.6,52.5,29.77,WNW,302,0.0,3.0,96,0.00,,,0.33,Wunderground v.1.15,2013-08-22 04:00:00,
2013-08-21 20:10:00,53.6,52.2,29.77,WNW,302,0.0,3.0,95,0.00,,,0.34,Wunderground v.1.15,2013-08-22 04:10:00,
2013-08-21 20:20:00,53.4,51.7,29.77,NW,304,0.0,3.0,94,0.00,,,0.34,Wunderground v.1.15,2013-08-22 04:20:00,
2013-08-21 20:30:00,53.3,51.3,29.77,North,5,0.0,3.0,93,0.00,,,0.34,Wunderground v.1.15,2013-08-22 04:30:00,
2013-08-21 20:40:00,53.1,51.1,29.77,NNE,23,0.0,3.0,93,0.00,,,0.35,Wunderground v.1.15,2013-08-22 04:40:00,
2013-08-21 20:50:00,53.0,51.0,29.77,NNE,23,0.0,3.0,93,0.00,,,0.35,Wunderground v.1.15,2013-08-22 04:50:00,
2013-08-21 21:00:00,52.7,50.7,29.77,NE,41,0.0,0.0,93,0.04,,,0.36,Wunderground v.1.15,2013-08-22 05:00:00,
2013-08-21 21:10:00,52.6,50.6,29.77,NE,45,2.0,2.0,93,0.04,,,0.36,Wunderground v.1.15,2013-08-22 05:10:00,
2013-08-21 21:20:00,52.5,50.5,29.77,NE,55,3.0,3.0,93,0.00,,,0.37,Wunderground v.1.15,2013-08-22 05:20:00,
2013-08-21 21:30:00,52.2,50.2,29.77,NNE,29,2.0,2.0,93,0.00,,,0.37,Wunderground v.1.15,2013-08-22 05:30:00,
2013-08-21 21:40:00,52.1,50.4,29.77,NE,37,2.0,2.0,94,0.04,,,0.38,Wunderground v.1.15,2013-08-22 05:40:00,
2013-08-21 21:50:00,52.1,50.4,29.77,NE,38,2.0,3.0,94,0.04,,,0.38,Wunderground v.1.15,2013-08-22 05:50:00,
2013-08-21 22:00:00,52.1,50.4,29.77,NE,51,3.0,3.0,94,0.00,,,0.38,Wunderground v.1.15,2013-08-22 06:00:00,
2013-08-21 22:10:00,52.1,50.4,29.78,ENE,59,3.0,6.0,94,0.00,,,0.39,Wunderground v.1.15,2013-08-22 06:10:00,
2013-08-21 22:20:00,52.0,50.3,29.78,NE,42,5.0,5.0,94,0.00,,,0.39,Wunderground v.1.15,2013-08-22 06:20:00,
2013-08-21 22:30:00,51.9,50.2,29.78,NE,44,4.0,6.0,94,0.00,,,0.40,Wunderground v.1.15,2013-08-22 06:30:00,
2013-08-21 22:40:00,51.9,50.2,29.78,ENE,69,5.0,6.0,94,0.00,,,0.40,Wunderground v.1.15,2013-08-22 06:40:00,
2013-08-21 22:50:00,51.8,49.8,29.78,ENE,62,5.0,5.0,93,0.00,,,0.40,Wunderground v.1.15,2013-08-22 06:50:00,
2013-08-21 23:00:00,51.8,50.1,29.78,ENE,62,5.0,7.0,94,0.00,,,0.41,Wunderground v.1.15,2013-08-22 07:00:00,
2013-08-21 23:10:00,51.8,49.8,29.78,NE,48,6.0,7.0,93,0.00,,,0.41,Wunderground v.1.15,2013-08-22 07:10:00,
2013-08-21 23:20:00,51.6,49.6,29.77,ENE,69,6.0,6.0,93,0.00,,,0.42,Wunderground v.1.15,2013-08-22 07:20:00,
2013-08-21 23:30:00,51.3,49.3,29.77,ENE,66,6.0,7.0,93,0.00,,,0.42,Wunderground v.1.15,2013-08-22 07:30:00,
2013-08-21 23:40:00,51.3,49.6,29.77,ENE,58,7.0,7.0,94,0.00,,,0.42,Wunderground v.1.15,2013-08-22 07:40:00,
2013-08-21 23:50:00,51.2,49.2,29.77,ENE,65,6.0,7.0,93,0.00,,,0.43,Wunderground v.1.15,2013-08-22 07:50:00,